Rochester/St. Mary\'s Hospita, MN

4:34 AM CST on December 08, 2019 (GMT -0600)
Rochester/St. Mary\'s Hospita

Weather History for K9MN - October, 2019

Change the Weather History Date:

Wednesday, October 9, 2019

  Actual Average (KRST) Record (KRST)
Temperature  
Mean Temperature 60 °F -  
Max Temperature 70 °F 57 °F 90 °F (2010)
Min Temperature 51 °F 38 °F 21 °F (1915)
Degree Days  
Heating Degree Days 4    
Growing Degree Days 10 (Base 50)    
Moisture  
Dew Point 43 °F    
Average Humidity 56    
Maximum Humidity 71    
Minimum Humidity 36    
Precipitation  
Precipitation 0.00 in - - ()
Sea Level Pressure  
Sea Level Pressure 29.98 in    
Wind  
Wind Speed 9 mph (SE)    
Max Wind Speed 20 mph    
Max Gust Speed 31 mph    
Visibility 10 miles    
Events      
Averages and records for this station are not official NWS values.
T = Trace of Precipitation, MM = Missing Value Source: NWS Daily Summary

Daily Weather History Graph

Daily Weather History Graph

Search for Another Location

Airport or City:

Astronomy

Oct. 09, 2019 Rise Set
Actual Time 7:16 AM CDT 6:36 PM CDT
Civil Twilight 6:48 AM CDT 7:05 PM CDT
Nautical Twilight 6:14 AM CDT 7:38 PM CDT
Astronomical Twilight 5:41 AM CDT 8:12 PM CDT
Moon 5:19 PM CDT (10/9) 2:52 AM CDT (10/9)
Length of Visible Light 12h 17m
Length of Day
11h 19m
Waxing Gibbous, 85% of the Moon is Illuminated
Oct 9
Waxing Gibbous
Oct 13
Full
Oct 21
Last Quarter
Oct 27
New
Nov 4
First Quarter

Hourly Weather History & Observations

Time (CDT) Temp. Dew Point Humidity Pressure Visibility Wind Dir Wind Speed Gust Speed Precip Events Conditions
12:15 AM 55.0 °F 42.1 °F 62% 29.99 in 10.0 mi SE 8.1 mph - N/A   Clear
12:35 AM 54.5 °F 42.3 °F 63% 30.00 in 10.0 mi SE 5.8 mph - N/A   Clear
12:36 AM 54.5 °F 42.3 °F 63% 30.00 in 10.0 mi SE 5.8 mph - N/A   Clear
12:55 AM 54.1 °F 42.4 °F 65% 30.00 in 10.0 mi SE 6.9 mph - N/A   Clear
12:56 AM 54.1 °F 42.4 °F 65% 30.00 in 10.0 mi SE 5.8 mph - N/A   Clear
1:15 AM 54.0 °F 42.3 °F 65% 30.00 in 10.0 mi SE 6.9 mph - N/A   Clear
1:35 AM 53.8 °F 42.3 °F 65% 30.00 in 10.0 mi SSE 5.8 mph - N/A   Clear
1:55 AM 53.6 °F 42.3 °F 65% 30.00 in 10.0 mi SE 6.9 mph - N/A   Clear
1:56 AM 53.6 °F 42.3 °F 65% 30.00 in 10.0 mi SE 6.9 mph - N/A   Clear
2:15 AM 52.9 °F 42.3 °F 67% 30.00 in 10.0 mi SE 6.9 mph - N/A   Clear
2:16 AM 52.9 °F 42.3 °F 67% 30.00 in 10.0 mi SE 5.8 mph - N/A   Clear
2:35 AM 52.9 °F 42.3 °F 67% 30.00 in 10.0 mi SE 6.9 mph - N/A   Clear
2:55 AM 53.2 °F 41.9 °F 65% 29.99 in 10.0 mi SSE 9.2 mph - N/A   Clear
3:15 AM 53.6 °F 41.9 °F 65% 29.99 in 10.0 mi SSE 6.9 mph - N/A   Clear
3:16 AM 53.6 °F 41.9 °F 65% 29.99 in 10.0 mi SSE 6.9 mph - N/A   Clear
3:35 AM 53.6 °F 41.9 °F 65% 29.99 in 10.0 mi SSE 4.6 mph - N/A   Clear
3:36 AM 53.6 °F 41.9 °F 65% 29.99 in 10.0 mi SSE 5.8 mph - N/A   Clear
3:55 AM 52.7 °F 41.9 °F 67% 29.99 in 10.0 mi SE 6.9 mph - N/A   Clear
4:15 AM 51.8 °F 41.9 °F 69% 29.99 in 10.0 mi SE 4.6 mph - N/A   Clear
4:35 AM 51.8 °F 41.9 °F 69% 29.99 in 10.0 mi SE 6.9 mph - N/A   Clear
4:36 AM 51.8 °F 41.9 °F 69% 29.99 in 10.0 mi SE 8.1 mph - N/A   Clear
4:55 AM 51.4 °F 41.9 °F 70% 29.99 in 10.0 mi SE 8.1 mph - N/A   Clear
4:56 AM 51.4 °F 41.9 °F 70% 29.99 in 10.0 mi SE 9.2 mph - N/A   Clear
5:15 AM 51.3 °F 41.9 °F 70% 29.99 in 10.0 mi SE 10.4 mph - N/A   Clear
5:35 AM 51.1 °F 41.9 °F 71% 29.99 in 10.0 mi SE 9.2 mph - N/A   Clear
5:55 AM 51.1 °F 41.5 °F 70% 29.99 in 10.0 mi SE 9.2 mph - N/A   Clear
5:56 AM 51.1 °F 41.7 °F 70% 29.99 in 10.0 mi SE 8.1 mph - N/A   Clear
6:15 AM 51.3 °F 41.9 °F 70% 29.99 in 10.0 mi SE 11.5 mph - N/A   Clear
6:16 AM 51.3 °F 41.9 °F 70% 29.99 in 10.0 mi SE 10.4 mph - N/A   Clear
6:35 AM 51.4 °F 41.9 °F 70% 29.99 in 10.0 mi SE 9.2 mph 16.1 mph N/A   Clear
7:15 AM 52.0 °F 41.9 °F 69% 29.99 in 10.0 mi SSE 11.5 mph 17.3 mph N/A   Clear
7:16 AM 52.0 °F 41.9 °F 69% 29.99 in 10.0 mi SE 12.7 mph 17.3 mph N/A   Clear
7:35 AM 51.8 °F 41.9 °F 69% 29.98 in 10.0 mi SE 11.5 mph - N/A   Clear
7:36 AM 51.8 °F 41.9 °F 69% 29.99 in 10.0 mi SE 12.7 mph - N/A   Clear
7:55 AM 52.2 °F 41.9 °F 68% 29.99 in 10.0 mi SE 10.4 mph 17.3 mph N/A   Clear
8:15 AM 52.7 °F 42.1 °F 67% 29.99 in 10.0 mi SE 10.4 mph 18.4 mph N/A   Clear
8:35 AM 53.6 °F 42.3 °F 65% 29.99 in 10.0 mi SE 12.7 mph 20.7 mph N/A   Clear
8:36 AM 53.6 °F 42.3 °F 65% 29.99 in 10.0 mi SE 10.4 mph 20.7 mph N/A   Clear
8:55 AM 54.5 °F 42.8 °F 65% 29.99 in 10.0 mi SE 8.1 mph 18.4 mph N/A   Clear
8:56 AM 54.5 °F 42.8 °F 65% 29.99 in 10.0 mi SSE 9.2 mph 16.1 mph N/A   Clear
9:15 AM 55.8 °F 43.2 °F 63% 29.99 in 10.0 mi SE 10.4 mph 18.4 mph N/A   Clear
9:35 AM 57.2 °F 43.5 °F 60% 30.00 in 10.0 mi SE 11.5 mph 20.7 mph N/A   Clear
9:36 AM 57.2 °F 43.5 °F 60% 30.00 in 10.0 mi SE 8.1 mph 20.7 mph N/A   Clear
9:55 AM 57.7 °F 43.7 °F 60% 30.00 in 10.0 mi SSE 8.1 mph 16.1 mph N/A   Clear
9:56 AM 57.9 °F 43.7 °F 59% 30.00 in 10.0 mi SSE 6.9 mph 16.1 mph N/A   Clear
10:15 AM 59.9 °F 44.1 °F 56% 30.00 in 10.0 mi SE 10.4 mph 17.3 mph N/A   Clear
10:35 AM 61.7 °F 44.1 °F 52% 30.00 in 10.0 mi SSE 15.0 mph 19.6 mph N/A   Clear
10:55 AM 63.3 °F 44.1 °F 49% 30.00 in 10.0 mi South 9.2 mph 18.4 mph N/A   Clear
10:56 AM 63.5 °F 44.1 °F 49% 30.01 in 10.0 mi South 9.2 mph 18.4 mph N/A   Clear
11:15 AM 63.9 °F 43.7 °F 48% 30.00 in 10.0 mi SSE 12.7 mph 21.9 mph N/A   Clear
11:16 AM 63.9 °F 43.7 °F 48% 30.00 in 10.0 mi SSE 11.5 mph 21.9 mph N/A   Clear
11:35 AM 64.8 °F 43.5 °F 46% 30.00 in 10.0 mi SSE 15.0 mph 19.6 mph N/A   Clear
11:55 AM 65.8 °F 43.7 °F 45% 29.99 in 10.0 mi SE 17.3 mph 25.3 mph N/A   Clear
12:15 PM 64.9 °F 43.9 °F 46% 29.99 in 10.0 mi SE 9.2 mph 23.0 mph N/A   Clear
12:35 PM 66.0 °F 44.1 °F 45% 29.98 in 10.0 mi SE 12.7 mph 21.9 mph N/A   Clear
12:36 PM 66.0 °F 44.1 °F 45% 29.98 in 10.0 mi SE 12.7 mph 21.9 mph N/A   Clear
12:55 PM 67.3 °F 43.7 °F 42% 29.99 in 10.0 mi SSE 16.1 mph 24.2 mph N/A   Clear
1:15 PM 67.1 °F 43.0 °F 42% 29.97 in 10.0 mi SSE 8.1 mph 31.1 mph N/A   Clear
1:35 PM 68.0 °F 43.3 °F 41% 29.97 in 10.0 mi SSE 12.7 mph 27.6 mph N/A   Clear
1:36 PM 68.2 °F 43.3 °F 41% 29.97 in 10.0 mi SSE 12.7 mph 27.6 mph N/A   Clear
1:55 PM 69.3 °F 43.0 °F 39% 29.95 in 10.0 mi SE 19.6 mph 31.1 mph N/A   Clear
1:56 PM 69.1 °F 43.0 °F 39% 29.96 in 10.0 mi SE 18.4 mph 31.1 mph N/A   Clear
2:15 PM 69.6 °F 43.0 °F 38% 29.95 in 10.0 mi SSE 19.6 mph 29.9 mph N/A   Clear
2:35 PM 70.0 °F 42.8 °F 37% 29.94 in 10.0 mi SSE 13.8 mph 29.9 mph N/A   Scattered Clouds
2:55 PM 70.0 °F 42.6 °F 37% 29.93 in 10.0 mi SE 13.8 mph 27.6 mph N/A   Clear
2:56 PM 70.0 °F 42.6 °F 37% 29.93 in 10.0 mi SE 19.6 mph 27.6 mph N/A   Clear
3:15 PM 70.0 °F 41.9 °F 36% 29.94 in 10.0 mi SSE 13.8 mph 26.5 mph N/A   Clear
3:16 PM 69.8 °F 41.9 °F 36% 29.94 in 10.0 mi SSE 15.0 mph 27.6 mph N/A   Clear
3:35 PM 68.2 °F 42.1 °F 39% 29.94 in 10.0 mi SE 19.6 mph 27.6 mph N/A   Clear
3:55 PM 67.6 °F 42.3 °F 40% 29.94 in 10.0 mi SE 12.7 mph 20.7 mph N/A   Clear
4:15 PM 68.2 °F 43.2 °F 40% 29.94 in 10.0 mi SE 10.4 mph 25.3 mph N/A   Clear
4:16 PM 68.4 °F 43.2 °F 40% 29.94 in 10.0 mi SE 13.8 mph 25.3 mph N/A   Clear
4:35 PM 68.4 °F 42.3 °F 39% 29.94 in 10.0 mi SSE 17.3 mph 29.9 mph N/A   Clear
4:55 PM 66.2 °F 42.6 °F 42% 29.95 in 10.0 mi SE 18.4 mph 21.9 mph N/A   Clear
5:15 PM 65.3 °F 42.8 °F 44% 29.95 in 10.0 mi SE 12.7 mph 18.4 mph N/A   Clear
5:16 PM 65.3 °F 42.8 °F 44% 29.95 in 10.0 mi SE 11.5 mph 18.4 mph N/A   Clear
5:35 PM 64.8 °F 43.2 °F 45% 29.95 in 10.0 mi SE 9.2 mph - N/A   Clear
5:36 PM 64.6 °F 43.3 °F 46% 29.95 in 10.0 mi SE 9.2 mph - N/A   Clear
5:55 PM 64.4 °F 43.9 °F 47% 29.95 in 10.0 mi SE 10.4 mph - N/A   Clear
6:15 PM 64.0 °F 43.2 °F 47% 29.96 in 10.0 mi SSE 8.1 mph - N/A   Clear
6:35 PM 63.5 °F 43.0 °F 47% 29.96 in 10.0 mi SE 9.2 mph - N/A   Clear
6:36 PM 63.5 °F 43.0 °F 47% 29.96 in 10.0 mi SE 8.1 mph - N/A   Clear
6:55 PM 62.6 °F 43.3 °F 49% 29.96 in 10.0 mi SE 8.1 mph - N/A   Clear
6:56 PM 62.6 °F 43.3 °F 49% 29.96 in 10.0 mi SE 6.9 mph - N/A   Clear
7:15 PM 61.9 °F 44.1 °F 52% 29.96 in 10.0 mi SE 8.1 mph - N/A   Clear
7:35 PM 61.0 °F 44.2 °F 54% 29.96 in 10.0 mi ESE 8.1 mph - N/A   Clear
7:36 PM 61.0 °F 44.2 °F 54% 29.96 in 10.0 mi SE 9.2 mph - N/A   Clear
7:55 PM 60.8 °F 43.9 °F 54% 29.97 in 10.0 mi SE 10.4 mph - N/A   Clear
7:56 PM 60.8 °F 43.9 °F 54% 29.97 in 10.0 mi SE 10.4 mph - N/A   Clear
8:15 PM 61.2 °F 42.3 °F 50% 29.97 in 10.0 mi SE 12.7 mph 19.6 mph N/A   Clear
8:35 PM 61.0 °F 41.9 °F 49% 29.97 in 10.0 mi ESE 11.5 mph 19.6 mph N/A   Clear
8:55 PM 60.1 °F 42.4 °F 52% 29.97 in 10.0 mi SE 9.2 mph - N/A   Clear
8:56 PM 60.1 °F 42.6 °F 53% 29.97 in 10.0 mi SE 9.2 mph - N/A   Clear
9:15 PM 59.5 °F 43.0 °F 54% 29.97 in 10.0 mi ESE 9.2 mph - N/A   Clear
9:16 PM 59.5 °F 43.0 °F 54% 29.97 in 10.0 mi ESE 9.2 mph - N/A   Clear
9:35 PM 59.0 °F 43.3 °F 56% 29.97 in 10.0 mi ESE 9.2 mph - N/A   Clear
9:55 PM 58.6 °F 44.1 °F 58% 29.97 in 10.0 mi ESE 9.2 mph - N/A   Scattered Clouds
10:15 PM 59.0 °F 44.6 °F 59% 29.98 in 10.0 mi ESE 10.4 mph - N/A   Clear
10:16 PM 59.0 °F 44.6 °F 59% 29.98 in 10.0 mi ESE 10.4 mph - N/A   Clear
10:35 PM 59.4 °F 44.8 °F 58% 29.99 in 10.0 mi SE 10.4 mph - N/A   Clear
10:55 PM 59.5 °F 44.6 °F 58% 29.99 in 10.0 mi SE 10.4 mph 17.3 mph N/A   Scattered Clouds
11:15 PM 59.7 °F 44.8 °F 58% 30.00 in 10.0 mi SE 9.2 mph 16.1 mph N/A   Mostly Cloudy
11:16 PM 59.7 °F 44.8 °F 58% 30.00 in 10.0 mi SE 9.2 mph 16.1 mph N/A   Overcast
11:35 PM 59.2 °F 45.0 °F 59% 30.00 in 10.0 mi SE 9.2 mph - N/A   Mostly Cloudy
11:36 PM 59.2 °F 45.0 °F 59% 30.00 in 10.0 mi SE 8.1 mph - N/A   Mostly Cloudy
11:55 PM 59.0 °F 45.3 °F 60% 30.01 in 10.0 mi SE 8.1 mph - N/A   Overcast